Time,TemperatureF,DewpointF,PressureIn,WindDirection,WindDirectionDegrees,WindSpeedMPH,WindSpeedGustMPH,Humidity,HourlyPrecipIn,Conditions,Clouds,dailyrainin,SoftwareType,DateUTC
2013-08-07 00:02:00,86.0,72.5,29.64,SSE,158,7.6,10.1,64,0.00,,,0.00,WUHU216HW,2013-08-07 05:02:00,
2013-08-07 00:07:00,86.4,72.3,29.65,SE,135,5.1,9.4,63,0.00,,,0.00,WUHU216HW,2013-08-07 05:07:00,
2013-08-07 00:12:00,86.8,72.6,29.64,SSW,203,4.3,8.1,63,0.00,,,0.00,WUHU216HW,2013-08-07 05:12:00,
2013-08-07 00:17:00,86.8,72.6,29.64,SE,135,5.1,8.1,63,0.00,,,0.00,WUHU216HW,2013-08-07 05:17:00,
2013-08-07 00:22:00,86.8,72.6,29.65,SSE,158,6.3,8.7,63,0.00,,,0.00,WUHU216HW,2013-08-07 05:22:00,
2013-08-07 00:27:00,86.4,72.3,29.65,South,180,4.0,9.2,63,0.00,,,0.00,WUHU216HW,2013-08-07 05:27:00,
2013-08-07 00:32:00,85.3,72.2,29.65,SSE,158,9.4,9.4,65,0.00,,,0.00,WUHU216HW,2013-08-07 05:32:00,
2013-08-07 00:37:00,84.8,72.2,29.65,SSE,158,5.8,9.4,66,0.00,,,0.00,WUHU216HW,2013-08-07 05:37:00,
2013-08-07 00:42:00,84.6,72.5,29.65,SSW,203,4.3,8.3,67,0.00,,,0.00,WUHU216HW,2013-08-07 05:42:00,
2013-08-07 00:47:00,84.2,72.5,29.65,SSW,203,5.4,9.2,68,0.00,,,0.00,WUHU216HW,2013-08-07 05:47:00,
2013-08-07 00:52:00,83.9,72.6,29.64,SSE,158,6.9,9.2,69,0.00,,,0.00,WUHU216HW,2013-08-07 05:52:00,
2013-08-07 00:57:00,83.9,72.6,29.65,South,180,10.1,10.1,69,0.00,,,0.00,WUHU216HW,2013-08-07 05:57:00,
2013-08-07 01:02:00,84.2,72.5,29.65,South,180,8.5,10.1,68,0.00,,,0.00,WUHU216HW,2013-08-07 06:02:00,
2013-08-07 01:07:00,84.6,72.9,29.64,South,180,8.7,12.8,68,0.00,,,0.00,WUHU216HW,2013-08-07 06:07:00,
2013-08-07 01:12:00,84.6,72.9,29.64,South,180,12.1,14.5,68,0.00,,,0.00,WUHU216HW,2013-08-07 06:12:00,
2013-08-07 01:17:00,84.4,72.7,29.64,SSE,158,7.8,14.5,68,0.00,,,0.00,WUHU216HW,2013-08-07 06:17:00,
2013-08-07 01:22:00,83.9,73.1,29.64,East,90,6.3,9.2,70,0.00,,,0.00,WUHU216HW,2013-08-07 06:22:00,
2013-08-07 01:27:00,83.0,72.6,29.64,SW,225,5.4,7.8,71,0.00,,,0.00,WUHU216HW,2013-08-07 06:27:00,
2013-08-07 01:32:00,82.8,72.8,29.65,SSW,203,6.5,7.6,72,0.00,,,0.00,WUHU216HW,2013-08-07 06:32:00,
2013-08-07 01:37:00,82.6,72.6,29.64,South,180,7.2,9.6,72,0.00,,,0.00,WUHU216HW,2013-08-07 06:37:00,
2013-08-07 01:42:00,82.4,72.5,29.64,SW,225,6.0,9.6,72,0.00,,,0.00,WUHU216HW,2013-08-07 06:42:00,
2013-08-07 01:47:00,82.1,72.5,29.63,SSE,158,5.8,8.9,73,0.00,,,0.00,WUHU216HW,2013-08-07 06:47:00,
2013-08-07 01:52:00,81.7,72.2,29.63,South,180,8.1,8.7,73,0.00,,,0.00,WUHU216HW,2013-08-07 06:52:00,
2013-08-07 01:57:00,82.3,72.7,29.64,SSW,203,7.8,8.7,73,0.00,,,0.00,WUHU216HW,2013-08-07 06:57:00,
2013-08-07 02:02:00,82.6,72.6,29.63,SSW,203,11.6,11.6,72,0.00,,,0.00,WUHU216HW,2013-08-07 07:02:00,
2013-08-07 02:07:00,82.4,72.9,29.63,SE,135,5.6,12.1,73,0.00,,,0.00,WUHU216HW,2013-08-07 07:07:00,
2013-08-07 02:12:00,81.9,72.0,29.64,South,180,3.4,12.1,72,0.00,,,0.00,WUHU216HW,2013-08-07 07:12:00,
2013-08-07 02:17:00,81.7,72.2,29.64,South,180,2.0,6.5,73,0.00,,,0.00,WUHU216HW,2013-08-07 07:17:00,
2013-08-07 02:22:00,81.7,71.8,29.64,SSW,203,4.0,5.1,72,0.00,,,0.00,WUHU216HW,2013-08-07 07:22:00,
2013-08-07 02:27:00,81.7,71.8,29.64,SSW,203,2.7,5.4,72,0.00,,,0.00,WUHU216HW,2013-08-07 07:27:00,
2013-08-07 02:32:00,81.5,72.0,29.64,SSE,158,4.0,7.2,73,0.00,,,0.00,WUHU216HW,2013-08-07 07:32:00,
2013-08-07 02:37:00,81.5,72.0,29.64,SSW,203,4.9,8.3,73,0.00,,,0.00,WUHU216HW,2013-08-07 07:37:00,
2013-08-07 02:42:00,81.4,71.9,29.64,South,180,6.0,8.3,73,0.00,,,0.00,WUHU216HW,2013-08-07 07:42:00,
2013-08-07 02:47:00,81.2,71.7,29.65,SSE,158,6.9,7.8,73,0.00,,,0.00,WUHU216HW,2013-08-07 07:47:00,
2013-08-07 02:52:00,81.0,71.9,29.64,SW,225,9.4,9.4,74,0.00,,,0.00,WUHU216HW,2013-08-07 07:52:00,
2013-08-07 02:57:00,81.2,72.1,29.64,South,180,6.9,10.1,74,0.00,,,0.00,WUHU216HW,2013-08-07 07:57:00,
2013-08-07 03:02:00,81.0,71.6,29.64,South,180,6.5,10.1,73,0.00,,,0.00,WUHU216HW,2013-08-07 08:02:00,
2013-08-07 03:07:00,81.0,71.6,29.64,South,180,2.0,6.9,73,0.00,,,0.00,WUHU216HW,2013-08-07 08:07:00,
2013-08-07 03:12:00,81.0,71.6,29.63,WSW,248,8.1,8.1,73,0.00,,,0.00,WUHU216HW,2013-08-07 08:12:00,
2013-08-07 03:17:00,81.0,71.9,29.63,SSW,203,9.4,9.4,74,0.00,,,0.00,WUHU216HW,2013-08-07 08:17:00,
2013-08-07 03:22:00,80.8,71.4,29.63,SSW,203,3.4,10.3,73,0.00,,,0.00,WUHU216HW,2013-08-07 08:22:00,
2013-08-07 03:27:00,80.8,71.7,29.63,SW,225,7.6,10.3,74,0.00,,,0.00,WUHU216HW,2013-08-07 08:27:00,
2013-08-07 03:32:00,80.6,71.7,29.63,SSW,203,6.0,9.8,74,0.00,,,0.00,WUHU216HW,2013-08-07 08:32:00,
2013-08-07 03:37:00,80.3,71.6,29.64,SSW,203,2.5,9.8,75,0.00,,,0.00,WUHU216HW,2013-08-07 08:37:00,
2013-08-07 03:42:00,80.3,71.6,29.64,WSW,248,4.7,6.9,75,0.00,,,0.00,WUHU216HW,2013-08-07 08:42:00,
2013-08-07 03:47:00,80.3,71.6,29.64,SW,225,6.5,6.9,75,0.00,,,0.00,WUHU216HW,2013-08-07 08:47:00,
2013-08-07 03:52:00,80.3,71.6,29.64,West,270,6.9,6.9,75,0.00,,,0.00,WUHU216HW,2013-08-07 08:52:00,
2013-08-07 03:57:00,80.3,71.6,29.64,SSW,203,6.3,9.2,75,0.00,,,0.00,WUHU216HW,2013-08-07 08:57:00,
2013-08-07 04:02:00,80.1,71.5,29.63,SW,225,6.9,9.2,75,0.00,,,0.00,WUHU216HW,2013-08-07 09:02:00,
2013-08-07 04:07:00,79.9,71.3,29.63,SSW,203,8.9,8.9,75,0.00,,,0.00,WUHU216HW,2013-08-07 09:07:00,
2013-08-07 04:12:00,79.9,71.3,29.63,SSW,203,6.3,8.9,75,0.00,,,0.00,WUHU216HW,2013-08-07 09:12:00,
2013-08-07 04:17:00,79.6,71.3,29.64,SSW,203,6.9,8.3,76,0.00,,,0.00,WUHU216HW,2013-08-07 09:17:00,
2013-08-07 04:22:00,79.4,71.6,29.63,WSW,248,8.5,8.5,77,0.00,,,0.00,WUHU216HW,2013-08-07 09:22:00,
2013-08-07 04:27:00,79.2,71.4,29.63,SW,225,6.9,8.5,77,0.00,,,0.00,WUHU216HW,2013-08-07 09:27:00,
2013-08-07 04:32:00,79.2,71.4,29.63,SSW,203,6.3,7.6,77,0.00,,,0.00,WUHU216HW,2013-08-07 09:32:00,
2013-08-07 04:37:00,79.4,71.6,29.63,SSW,203,4.7,7.6,77,0.00,,,0.00,WUHU216HW,2013-08-07 09:37:00,
2013-08-07 04:42:00,79.4,71.6,29.63,WSW,248,2.7,6.3,77,0.00,,,0.00,WUHU216HW,2013-08-07 09:42:00,
2013-08-07 04:47:00,79.4,71.6,29.63,SW,225,5.4,7.6,77,0.00,,,0.00,WUHU216HW,2013-08-07 09:47:00,
2013-08-07 04:52:00,79.2,71.7,29.63,South,180,4.9,7.6,78,0.00,,,0.00,WUHU216HW,2013-08-07 09:52:00,
2013-08-07 04:57:00,78.8,71.4,29.64,SW,225,3.6,9.2,78,0.00,,,0.00,WUHU216HW,2013-08-07 09:57:00,
2013-08-07 05:02:00,78.8,71.4,29.63,South,180,6.3,9.2,78,0.00,,,0.00,WUHU216HW,2013-08-07 10:02:00,
2013-08-07 05:07:00,78.8,71.4,29.63,SSW,203,7.4,7.4,78,0.00,,,0.00,WUHU216HW,2013-08-07 10:07:00,
2013-08-07 05:12:00,78.8,71.4,29.63,South,180,5.6,7.4,78,0.00,,,0.00,WUHU216HW,2013-08-07 10:12:00,
2013-08-07 05:17:00,78.7,71.7,29.63,South,180,6.9,6.9,79,0.00,,,0.00,WUHU216HW,2013-08-07 10:17:00,
2013-08-07 05:22:00,78.7,71.2,29.63,SSE,158,3.1,6.9,78,0.00,,,0.00,WUHU216HW,2013-08-07 10:22:00,
2013-08-07 05:27:00,78.7,71.2,29.64,WSW,248,3.8,5.8,78,0.00,,,0.00,WUHU216HW,2013-08-07 10:27:00,
2013-08-07 05:32:00,78.8,71.8,29.64,SSW,203,3.1,5.8,79,0.00,,,0.00,WUHU216HW,2013-08-07 10:32:00,
2013-08-07 05:37:00,78.8,71.4,29.64,SSE,158,2.5,4.0,78,0.00,,,0.00,WUHU216HW,2013-08-07 10:37:00,
2013-08-07 05:42:00,78.8,71.4,29.63,SSW,203,2.9,4.0,78,0.00,,,0.00,WUHU216HW,2013-08-07 10:42:00,
2013-08-07 05:47:00,78.8,71.4,29.64,SSW,203,3.4,3.6,78,0.00,,,0.00,WUHU216HW,2013-08-07 10:47:00,
2013-08-07 05:52:00,78.8,71.4,29.64,South,180,2.9,4.3,78,0.00,,,0.00,WUHU216HW,2013-08-07 10:52:00,
2013-08-07 05:57:00,79.0,71.6,29.64,SW,225,4.0,4.3,78,0.00,,,0.00,WUHU216HW,2013-08-07 10:57:00,
2013-08-07 06:02:00,79.0,72.0,29.64,SSW,203,6.0,6.0,79,0.00,,,0.00,WUHU216HW,2013-08-07 11:02:00,
2013-08-07 06:07:00,78.8,71.8,29.64,South,180,5.6,8.5,79,0.00,,,0.00,WUHU216HW,2013-08-07 11:07:00,
2013-08-07 06:12:00,78.8,71.8,29.64,SSW,203,3.8,8.5,79,0.00,,,0.00,WUHU216HW,2013-08-07 11:12:00,
2013-08-07 06:17:00,78.8,71.8,29.64,SE,135,4.9,8.1,79,0.00,,,0.00,WUHU216HW,2013-08-07 11:17:00,
2013-08-07 06:22:00,78.8,71.8,29.64,South,180,6.7,6.9,79,0.00,,,0.00,WUHU216HW,2013-08-07 11:22:00,
2013-08-07 06:27:00,78.8,71.8,29.64,SSW,203,2.2,6.9,79,0.00,,,0.00,WUHU216HW,2013-08-07 11:27:00,
2013-08-07 06:32:00,79.0,72.0,29.64,WSW,248,5.1,7.2,79,0.00,,,0.00,WUHU216HW,2013-08-07 11:32:00,
2013-08-07 06:37:00,79.0,71.6,29.64,South,180,4.0,7.2,78,0.00,,,0.00,WUHU216HW,2013-08-07 11:37:00,
2013-08-07 06:42:00,79.2,71.7,29.63,SW,225,6.5,7.4,78,0.00,,,0.00,WUHU216HW,2013-08-07 11:42:00,
2013-08-07 06:47:00,79.2,71.7,29.63,South,180,6.3,7.4,78,0.00,,,0.00,WUHU216HW,2013-08-07 11:47:00,
2013-08-07 06:52:00,79.0,72.0,29.63,SSW,203,5.4,6.3,79,0.00,,,0.00,WUHU216HW,2013-08-07 11:52:00,
2013-08-07 06:57:00,79.0,72.0,29.63,South,180,5.1,8.3,79,0.00,,,0.00,WUHU216HW,2013-08-07 11:57:00,
2013-08-07 07:02:00,79.0,72.0,29.63,South,180,4.7,8.3,79,0.00,,,0.00,WUHU216HW,2013-08-07 12:02:00,
2013-08-07 07:07:00,79.0,72.0,29.64,SW,225,5.1,6.3,79,0.00,,,0.00,WUHU216HW,2013-08-07 12:07:00,
2013-08-07 07:12:00,79.0,72.0,29.64,WSW,248,2.9,6.3,79,0.00,,,0.00,WUHU216HW,2013-08-07 12:12:00,
2013-08-07 07:17:00,79.4,71.9,29.64,West,270,2.2,3.4,78,0.00,,,0.00,WUHU216HW,2013-08-07 12:17:00,
2013-08-07 07:22:00,79.4,71.9,29.65,SSW,203,6.5,6.5,78,0.00,,,0.00,WUHU216HW,2013-08-07 12:22:00,
2013-08-07 07:27:00,79.6,72.1,29.64,SW,225,4.9,6.5,78,0.00,,,0.00,WUHU216HW,2013-08-07 12:27:00,
2013-08-07 07:32:00,79.6,72.1,29.64,SW,225,4.7,5.4,78,0.00,,,0.00,WUHU216HW,2013-08-07 12:32:00,
2013-08-07 07:37:00,79.6,72.6,29.64,WSW,248,8.3,8.3,79,0.00,,,0.00,WUHU216HW,2013-08-07 12:37:00,
2013-08-07 07:42:00,79.6,72.1,29.64,SW,225,3.8,8.3,78,0.00,,,0.00,WUHU216HW,2013-08-07 12:42:00,
2013-08-07 07:47:00,79.7,72.3,29.64,South,180,4.0,5.1,78,0.00,,,0.00,WUHU216HW,2013-08-07 12:47:00,
2013-08-07 07:52:00,79.7,72.3,29.63,SW,225,4.7,6.3,78,0.00,,,0.00,WUHU216HW,2013-08-07 12:52:00,
2013-08-07 07:57:00,79.7,72.7,29.64,SSW,203,5.1,6.3,79,0.00,,,0.00,WUHU216HW,2013-08-07 12:57:00,
2013-08-07 08:02:00,79.9,72.5,29.64,SSW,203,5.6,7.6,78,0.00,,,0.00,WUHU216HW,2013-08-07 13:02:00,
2013-08-07 08:07:00,80.1,72.6,29.64,South,180,5.6,7.6,78,0.00,,,0.00,WUHU216HW,2013-08-07 13:07:00,
2013-08-07 08:12:00,80.3,72.8,29.64,SSW,203,7.2,7.6,78,0.00,,,0.00,WUHU216HW,2013-08-07 13:12:00,
2013-08-07 08:17:00,80.5,72.6,29.64,SSW,203,9.2,9.2,77,0.00,,,0.00,WUHU216HW,2013-08-07 13:17:00,
2013-08-07 08:22:00,80.5,72.6,29.64,SW,225,7.2,9.6,77,0.00,,,0.00,WUHU216HW,2013-08-07 13:22:00,
2013-08-07 08:27:00,80.5,72.6,29.65,SW,225,5.4,9.6,77,0.00,,,0.00,WUHU216HW,2013-08-07 13:27:00,
2013-08-07 08:32:00,81.0,72.7,29.65,SSW,203,5.4,8.7,76,0.00,,,0.00,WUHU216HW,2013-08-07 13:32:00,
2013-08-07 08:37:00,81.7,73.0,29.64,SSW,203,9.8,10.5,75,0.00,,,0.00,WUHU216HW,2013-08-07 13:37:00,
2013-08-07 08:42:00,82.1,73.4,29.65,SSW,203,5.4,10.5,75,0.00,,,0.00,WUHU216HW,2013-08-07 13:42:00,
2013-08-07 08:47:00,82.4,73.3,29.65,South,180,6.9,10.5,74,0.00,,,0.00,WUHU216HW,2013-08-07 13:47:00,
2013-08-07 08:52:00,82.8,73.3,29.65,SSW,203,11.4,11.4,73,0.00,,,0.00,WUHU216HW,2013-08-07 13:52:00,
2013-08-07 08:57:00,83.5,73.5,29.65,SSW,203,9.2,11.4,72,0.00,,,0.00,WUHU216HW,2013-08-07 13:57:00,
2013-08-07 09:02:00,83.7,73.7,29.65,SW,225,5.8,10.7,72,0.00,,,0.00,WUHU216HW,2013-08-07 14:02:00,
2013-08-07 09:07:00,83.9,73.9,29.65,SW,225,6.9,10.5,72,0.00,,,0.00,WUHU216HW,2013-08-07 14:07:00,
2013-08-07 09:12:00,84.1,74.1,29.65,WSW,248,12.1,12.1,72,0.00,,,0.00,WUHU216HW,2013-08-07 14:12:00,
2013-08-07 09:17:00,84.4,74.0,29.65,SSW,203,6.7,12.1,71,0.00,,,0.00,WUHU216HW,2013-08-07 14:17:00,
2013-08-07 09:22:00,84.8,74.0,29.65,SW,225,7.8,11.9,70,0.00,,,0.00,WUHU216HW,2013-08-07 14:22:00,
2013-08-07 09:27:00,85.0,74.2,29.65,SW,225,4.7,11.9,70,0.00,,,0.00,WUHU216HW,2013-08-07 14:27:00,
2013-08-07 09:32:00,85.3,74.1,29.65,SSW,203,9.2,10.5,69,0.00,,,0.00,WUHU216HW,2013-08-07 14:32:00,
2013-08-07 09:37:00,85.3,74.1,29.65,WSW,248,5.4,9.6,69,0.00,,,0.00,WUHU216HW,2013-08-07 14:37:00,
2013-08-07 09:42:00,85.9,74.2,29.65,SW,225,6.0,8.9,68,0.00,,,0.00,WUHU216HW,2013-08-07 14:42:00,
2013-08-07 09:47:00,86.2,74.4,29.65,WSW,248,3.8,9.8,68,0.00,,,0.00,WUHU216HW,2013-08-07 14:47:00,
2013-08-07 09:52:00,86.8,74.5,29.65,WSW,248,7.6,10.1,67,0.00,,,0.00,WUHU216HW,2013-08-07 14:52:00,
2013-08-07 09:57:00,87.3,74.5,29.65,WSW,248,5.4,10.1,66,0.00,,,0.00,WUHU216HW,2013-08-07 14:57:00,
2013-08-07 10:02:00,87.7,74.4,29.65,South,180,5.4,9.8,65,0.00,,,0.00,WUHU216HW,2013-08-07 15:02:00,
2013-08-07 10:07:00,88.0,74.8,29.65,SW,225,2.2,7.6,65,0.00,,,0.00,WUHU216HW,2013-08-07 15:07:00,
2013-08-07 10:12:00,88.6,74.3,29.65,WSW,248,6.3,8.9,63,0.00,,,0.00,WUHU216HW,2013-08-07 15:12:00,
2013-08-07 10:17:00,88.7,74.5,29.66,WSW,248,7.8,9.8,63,0.00,,,0.00,WUHU216HW,2013-08-07 15:17:00,
2013-08-07 10:22:00,88.9,74.3,29.66,SW,225,4.5,9.8,62,0.00,,,0.00,WUHU216HW,2013-08-07 15:22:00,
2013-08-07 10:27:00,88.9,74.3,29.66,West,270,4.7,9.6,62,0.00,,,0.00,WUHU216HW,2013-08-07 15:27:00,
2013-08-07 10:32:00,89.3,74.6,29.66,SW,225,6.7,9.4,62,0.00,,,0.00,WUHU216HW,2013-08-07 15:32:00,
2013-08-07 10:37:00,89.6,74.9,29.66,West,270,4.7,9.4,62,0.00,,,0.00,WUHU216HW,2013-08-07 15:37:00,
2013-08-07 10:42:00,90.4,75.1,29.66,WSW,248,5.8,7.6,61,0.00,,,0.00,WUHU216HW,2013-08-07 15:42:00,
2013-08-07 10:47:00,90.9,74.6,29.66,WNW,293,6.3,6.9,59,0.00,,,0.00,WUHU216HW,2013-08-07 15:47:00,
2013-08-07 10:52:00,91.3,74.9,29.66,WSW,248,3.6,6.9,59,0.00,,,0.00,WUHU216HW,2013-08-07 15:52:00,
2013-08-07 10:57:00,91.6,74.7,29.66,SSW,203,3.4,9.2,58,0.00,,,0.00,WUHU216HW,2013-08-07 15:57:00,
2013-08-07 11:02:00,91.8,74.9,29.66,SSW,203,4.3,10.3,58,0.00,,,0.00,WUHU216HW,2013-08-07 16:02:00,
2013-08-07 11:07:00,92.2,74.7,29.66,NW,315,4.9,10.3,57,0.00,,,0.00,WUHU216HW,2013-08-07 16:07:00,
2013-08-07 11:12:00,92.2,74.7,29.66,WSW,248,2.0,8.3,57,0.00,,,0.00,WUHU216HW,2013-08-07 16:12:00,
2013-08-07 11:17:00,92.5,75.1,29.66,West,270,7.6,8.3,57,0.00,,,0.00,WUHU216HW,2013-08-07 16:17:00,
2013-08-07 11:22:00,93.4,74.8,29.66,WSW,248,4.9,7.6,55,0.00,,,0.00,WUHU216HW,2013-08-07 16:22:00,
2013-08-07 11:27:00,93.8,74.6,29.66,SW,225,9.2,9.2,54,0.00,,,0.00,WUHU216HW,2013-08-07 16:27:00,
2013-08-07 11:32:00,94.0,74.7,29.66,SW,225,4.5,9.2,54,0.00,,,0.00,WUHU216HW,2013-08-07 16:32:00,
2013-08-07 11:37:00,94.0,75.3,29.66,SW,225,8.7,8.7,55,0.00,,,0.00,WUHU216HW,2013-08-07 16:37:00,
2013-08-07 11:42:00,94.1,74.9,29.65,SSW,203,7.2,8.7,54,0.00,,,0.00,WUHU216HW,2013-08-07 16:42:00,
2013-08-07 11:47:00,94.3,74.5,29.65,West,270,6.0,8.9,53,0.00,,,0.00,WUHU216HW,2013-08-07 16:47:00,
2013-08-07 11:52:00,94.7,74.9,29.65,SSE,158,4.5,9.6,53,0.00,,,0.00,WUHU216HW,2013-08-07 16:52:00,
2013-08-07 11:57:00,95.0,74.7,29.65,SSW,203,7.6,9.6,52,0.00,,,0.00,WUHU216HW,2013-08-07 16:57:00,
2013-08-07 12:02:00,95.2,74.4,29.66,SW,225,7.4,8.3,51,0.00,,,0.00,WUHU216HW,2013-08-07 17:02:00,
2013-08-07 12:07:00,95.4,74.5,29.65,SSE,158,6.0,7.4,51,0.00,,,0.00,WUHU216HW,2013-08-07 17:07:00,
2013-08-07 12:12:00,95.9,74.4,29.65,SW,225,7.8,7.8,50,0.00,,,0.00,WUHU216HW,2013-08-07 17:12:00,
2013-08-07 12:17:00,96.1,74.6,29.65,SW,225,6.5,7.8,50,0.00,,,0.00,WUHU216HW,2013-08-07 17:17:00,
2013-08-07 12:22:00,96.5,74.3,29.65,WSW,248,6.0,7.8,49,0.00,,,0.00,WUHU216HW,2013-08-07 17:22:00,
2013-08-07 12:27:00,97.2,75.6,29.65,WNW,293,5.8,7.6,50,0.00,,,0.00,WUHU216HW,2013-08-07 17:27:00,
2013-08-07 12:32:00,97.6,75.3,29.65,West,270,3.8,10.7,49,0.00,,,0.00,WUHU216HW,2013-08-07 17:32:00,
2013-08-07 12:37:00,97.7,74.1,29.64,WNW,293,8.1,13.0,47,0.00,,,0.00,WUHU216HW,2013-08-07 17:37:00,
2013-08-07 12:42:00,98.1,74.3,29.64,WNW,293,2.9,13.0,47,0.00,,,0.00,WUHU216HW,2013-08-07 17:42:00,
2013-08-07 12:47:00,98.5,74.7,29.64,WSW,248,7.4,7.6,47,0.00,,,0.00,WUHU216HW,2013-08-07 17:47:00,
2013-08-07 12:52:00,98.8,75.1,29.64,SSE,158,6.9,7.4,47,0.00,,,0.00,WUHU216HW,2013-08-07 17:52:00,
2013-08-07 12:57:00,99.0,73.9,29.64,SW,225,5.4,8.5,45,0.00,,,0.00,WUHU216HW,2013-08-07 17:57:00,
2013-08-07 13:02:00,99.4,74.2,29.64,SSE,158,3.4,8.5,45,0.00,,,0.00,WUHU216HW,2013-08-07 18:02:00,
2013-08-07 13:07:00,99.5,73.0,29.64,WSW,248,6.9,7.6,43,0.00,,,0.00,WUHU216HW,2013-08-07 18:07:00,
2013-08-07 13:12:00,99.4,72.8,29.63,WSW,248,10.3,10.3,43,0.00,,,0.00,WUHU216HW,2013-08-07 18:12:00,
2013-08-07 13:17:00,99.5,73.7,29.63,WSW,248,2.7,10.3,44,0.00,,,0.00,WUHU216HW,2013-08-07 18:17:00,
2013-08-07 13:22:00,99.4,74.2,29.63,SSW,203,4.7,6.9,45,0.00,,,0.00,WUHU216HW,2013-08-07 18:22:00,
2013-08-07 13:27:00,99.7,73.2,29.63,SSW,203,6.3,8.5,43,0.00,,,0.00,WUHU216HW,2013-08-07 18:27:00,
2013-08-07 13:32:00,99.0,72.6,29.63,ESE,113,3.1,8.5,43,0.00,,,0.00,WUHU216HW,2013-08-07 18:32:00,
2013-08-07 13:37:00,99.4,72.2,29.63,WSW,248,2.9,8.5,42,0.00,,,0.00,WUHU216HW,2013-08-07 18:37:00,
2013-08-07 13:42:00,99.9,72.6,29.62,SW,225,5.4,7.2,42,0.00,,,0.00,WUHU216HW,2013-08-07 18:42:00,
2013-08-07 13:47:00,100.6,72.6,29.62,SW,225,7.2,8.5,41,0.00,,,0.00,WUHU216HW,2013-08-07 18:47:00,
2013-08-07 13:52:00,101.0,73.0,29.62,South,180,6.3,8.5,41,0.00,,,0.00,WUHU216HW,2013-08-07 18:52:00,
2013-08-07 13:57:00,101.5,72.8,29.62,SSW,203,6.9,9.2,40,0.00,,,0.00,WUHU216HW,2013-08-07 18:57:00,
2013-08-07 14:02:00,101.7,72.1,29.61,South,180,4.0,9.8,39,0.00,,,0.00,WUHU216HW,2013-08-07 19:02:00,
2013-08-07 14:07:00,101.3,71.8,29.61,SSE,158,2.0,9.8,39,0.00,,,0.00,WUHU216HW,2013-08-07 19:07:00,
2013-08-07 14:12:00,101.7,73.0,29.61,WSW,248,5.1,8.5,40,0.00,,,0.00,WUHU216HW,2013-08-07 19:12:00,
2013-08-07 14:17:00,102.2,71.7,29.61,WSW,248,3.6,8.7,38,0.00,,,0.00,WUHU216HW,2013-08-07 19:17:00,
2013-08-07 14:22:00,102.2,71.7,29.61,SSW,203,7.2,8.7,38,0.00,,,0.00,WUHU216HW,2013-08-07 19:22:00,
2013-08-07 14:27:00,101.7,72.1,29.61,SW,225,4.9,7.8,39,0.00,,,0.00,WUHU216HW,2013-08-07 19:27:00,
2013-08-07 14:32:00,101.7,69.6,29.60,SE,135,8.5,8.5,36,0.00,,,0.00,WUHU216HW,2013-08-07 19:32:00,
2013-08-07 14:36:00,101.0,71.5,29.60,South,180,10.5,10.5,39,0.00,,,0.00,WUHU216HW,2013-08-07 19:36:00,
2013-08-07 14:41:00,101.3,69.3,29.60,SE,135,5.4,10.5,36,0.00,,,0.00,WUHU216HW,2013-08-07 19:41:00,
2013-08-07 14:46:00,101.5,68.6,29.60,SW,225,8.5,13.9,35,0.00,,,0.00,WUHU216HW,2013-08-07 19:46:00,
2013-08-07 14:52:00,102.2,70.0,29.60,SSW,203,3.6,13.9,36,0.00,,,0.00,WUHU216HW,2013-08-07 19:52:00,
2013-08-07 14:57:00,103.1,68.3,29.60,SW,225,5.8,7.2,33,0.00,,,0.00,WUHU216HW,2013-08-07 19:57:00,
2013-08-07 15:02:00,103.5,68.7,29.59,South,180,6.0,8.3,33,0.00,,,0.00,WUHU216HW,2013-08-07 20:02:00,
2013-08-07 15:07:00,103.9,68.9,29.59,SSW,203,4.3,8.3,33,0.00,,,0.00,WUHU216HW,2013-08-07 20:07:00,
2013-08-07 15:12:00,103.5,68.7,29.59,SSW,203,4.0,8.1,33,0.00,,,0.00,WUHU216HW,2013-08-07 20:12:00,
2013-08-07 15:17:00,103.3,68.5,29.58,West,270,5.8,8.1,33,0.00,,,0.00,WUHU216HW,2013-08-07 20:17:00,
2013-08-07 15:22:00,103.3,70.2,29.58,SSW,203,7.4,7.8,35,0.00,,,0.00,WUHU216HW,2013-08-07 20:22:00,
2013-08-07 15:27:00,103.3,70.2,29.58,SSW,203,6.9,7.8,35,0.00,,,0.00,WUHU216HW,2013-08-07 20:27:00,
2013-08-07 15:32:00,103.3,69.3,29.58,SSE,158,8.7,9.2,34,0.00,,,0.00,WUHU216HW,2013-08-07 20:32:00,
2013-08-07 15:37:00,102.1,69.9,29.58,SSE,158,6.9,9.2,36,0.00,,,0.00,WUHU216HW,2013-08-07 20:37:00,
2013-08-07 15:42:00,102.4,70.2,29.58,SSE,158,12.8,12.8,36,0.00,,,0.00,WUHU216HW,2013-08-07 20:42:00,
2013-08-07 15:47:00,102.8,70.6,29.58,WSW,248,6.5,12.8,36,0.00,,,0.00,WUHU216HW,2013-08-07 20:47:00,
2013-08-07 15:52:00,103.5,69.5,29.58,South,180,2.7,10.5,34,0.00,,,0.00,WUHU216HW,2013-08-07 20:52:00,
2013-08-07 15:57:00,103.9,68.9,29.57,SSE,158,1.8,6.9,33,0.00,,,0.00,WUHU216HW,2013-08-07 20:57:00,
2013-08-07 16:02:00,104.0,68.3,29.57,NNE,23,1.8,6.9,32,0.00,,,0.00,WUHU216HW,2013-08-07 21:02:00,
2013-08-07 16:07:00,103.7,68.9,29.57,SSE,158,6.7,6.7,33,0.00,,,0.00,WUHU216HW,2013-08-07 21:07:00,
2013-08-07 16:12:00,103.5,69.5,29.56,SW,225,6.3,8.3,34,0.00,,,0.00,WUHU216HW,2013-08-07 21:12:00,
2013-08-07 16:17:00,103.1,69.2,29.56,ESE,113,6.3,8.5,34,0.00,,,0.00,WUHU216HW,2013-08-07 21:17:00,
2013-08-07 16:22:00,102.2,67.5,29.56,South,180,5.1,9.8,33,0.00,,,0.00,WUHU216HW,2013-08-07 21:22:00,
2013-08-07 16:27:00,102.2,66.7,29.56,SE,135,6.7,9.8,32,0.00,,,0.00,WUHU216HW,2013-08-07 21:27:00,
2013-08-07 16:32:00,102.2,67.5,29.56,South,180,6.5,10.1,33,0.00,,,0.00,WUHU216HW,2013-08-07 21:32:00,
2013-08-07 16:37:00,103.3,67.7,29.55,SSW,203,7.6,10.1,32,0.00,,,0.00,WUHU216HW,2013-08-07 21:37:00,
2013-08-07 16:42:00,103.7,67.2,29.55,South,180,6.3,7.6,31,0.00,,,0.00,WUHU216HW,2013-08-07 21:42:00,
2013-08-07 16:47:00,103.9,67.3,29.55,SSW,203,9.4,9.4,31,0.00,,,0.00,WUHU216HW,2013-08-07 21:47:00,
2013-08-07 16:52:00,103.7,66.2,29.55,South,180,5.1,9.4,30,0.00,,,0.00,WUHU216HW,2013-08-07 21:52:00,
2013-08-07 16:57:00,104.0,65.4,29.55,SE,135,5.4,8.3,29,0.00,,,0.00,WUHU216HW,2013-08-07 21:57:00,
2013-08-07 17:02:00,103.7,65.2,29.55,SSW,203,4.5,9.2,29,0.00,,,0.00,WUHU216HW,2013-08-07 22:02:00,
2013-08-07 17:07:00,103.3,66.0,29.55,SSE,158,4.7,9.2,30,0.00,,,0.00,WUHU216HW,2013-08-07 22:07:00,
2013-08-07 17:12:00,102.6,65.4,29.54,SE,135,14.3,14.3,30,0.00,,,0.00,WUHU216HW,2013-08-07 22:12:00,
2013-08-07 17:17:00,102.2,65.8,29.54,SW,225,7.6,14.3,31,0.00,,,0.00,WUHU216HW,2013-08-07 22:17:00,
2013-08-07 17:22:00,101.5,65.3,29.54,SSW,203,5.4,10.5,31,0.00,,,0.00,WUHU216HW,2013-08-07 22:22:00,
2013-08-07 17:27:00,103.0,64.5,29.54,South,180,6.3,12.1,29,0.00,,,0.00,WUHU216HW,2013-08-07 22:27:00,
2013-08-07 17:32:00,103.1,65.8,29.54,SSW,203,5.4,12.1,30,0.00,,,0.00,WUHU216HW,2013-08-07 22:32:00,
2013-08-07 17:37:00,103.3,64.8,29.54,SSW,203,8.3,13.2,29,0.00,,,0.00,WUHU216HW,2013-08-07 22:37:00,
2013-08-07 17:42:00,103.3,64.8,29.54,SSE,158,4.7,13.2,29,0.00,,,0.00,WUHU216HW,2013-08-07 22:42:00,
2013-08-07 17:47:00,103.0,64.5,29.53,SSE,158,9.2,13.0,29,0.00,,,0.00,WUHU216HW,2013-08-07 22:47:00,
2013-08-07 17:52:00,103.3,64.8,29.53,SSE,158,4.7,13.0,29,0.00,,,0.00,WUHU216HW,2013-08-07 22:52:00,
2013-08-07 17:57:00,103.0,62.2,29.53,SE,135,6.3,11.0,27,0.00,,,0.00,WUHU216HW,2013-08-07 22:57:00,
2013-08-07 18:02:00,102.2,61.6,29.53,SSE,158,6.5,9.8,27,0.00,,,0.00,WUHU216HW,2013-08-07 23:02:00,
2013-08-07 18:07:00,101.9,61.3,29.53,SSE,158,5.1,7.2,27,0.00,,,0.00,WUHU216HW,2013-08-07 23:07:00,
2013-08-07 18:12:00,102.6,61.9,29.53,SSW,203,5.1,8.7,27,0.00,,,0.00,WUHU216HW,2013-08-07 23:12:00,
2013-08-07 18:17:00,102.2,61.6,29.52,South,180,6.9,8.7,27,0.00,,,0.00,WUHU216HW,2013-08-07 23:17:00,
2013-08-07 18:22:00,102.2,61.6,29.52,SSE,158,7.6,8.5,27,0.00,,,0.00,WUHU216HW,2013-08-07 23:22:00,
2013-08-07 18:27:00,102.2,60.5,29.52,SSW,203,4.5,8.1,26,0.00,,,0.00,WUHU216HW,2013-08-07 23:27:00,
2013-08-07 18:32:00,102.6,61.9,29.52,South,180,5.4,9.8,27,0.00,,,0.00,WUHU216HW,2013-08-07 23:32:00,
2013-08-07 18:37:00,102.2,61.6,29.52,SSW,203,6.5,9.8,27,0.00,,,0.00,WUHU216HW,2013-08-07 23:37:00,
2013-08-07 18:42:00,102.1,61.5,29.52,WSW,248,4.5,12.8,27,0.00,,,0.00,WUHU216HW,2013-08-07 23:42:00,
2013-08-07 18:47:00,101.9,61.3,29.52,South,180,11.0,12.8,27,0.00,,,0.00,WUHU216HW,2013-08-07 23:47:00,
2013-08-07 18:52:00,101.9,61.3,29.52,South,180,10.3,12.1,27,0.00,,,0.00,WUHU216HW,2013-08-07 23:52:00,
2013-08-07 18:57:00,101.0,60.6,29.51,SSW,203,5.4,12.1,27,0.00,,,0.00,WUHU216HW,2013-08-07 23:57:00,
2013-08-07 19:02:00,100.4,62.4,29.51,SW,225,6.7,11.4,29,0.00,,,0.00,WUHU216HW,2013-08-08 00:02:00,
2013-08-07 19:07:00,100.3,62.3,29.51,SSW,203,10.5,11.9,29,0.00,,,0.00,WUHU216HW,2013-08-08 00:07:00,
2013-08-07 19:12:00,100.4,61.3,29.51,South,180,5.4,12.1,28,0.00,,,0.00,WUHU216HW,2013-08-08 00:12:00,
2013-08-07 19:17:00,100.4,60.1,29.51,SSE,158,3.8,12.1,27,0.00,,,0.00,WUHU216HW,2013-08-08 00:17:00,
2013-08-07 19:22:00,100.4,60.1,29.52,SSE,158,10.7,10.7,27,0.00,,,0.00,WUHU216HW,2013-08-08 00:22:00,
2013-08-07 19:27:00,100.3,62.3,29.52,SSW,203,10.5,10.7,29,0.00,,,0.00,WUHU216HW,2013-08-08 00:27:00,
2013-08-07 19:32:00,100.3,61.1,29.52,South,180,7.4,10.5,28,0.00,,,0.00,WUHU216HW,2013-08-08 00:32:00,
2013-08-07 19:37:00,100.1,62.1,29.52,SSW,203,6.5,10.1,29,0.00,,,0.00,WUHU216HW,2013-08-08 00:37:00,
2013-08-07 19:42:00,99.4,61.5,29.53,SSW,203,6.9,9.2,29,0.00,,,0.00,WUHU216HW,2013-08-08 00:42:00,
2013-08-07 19:47:00,99.2,62.4,29.53,SSW,203,4.0,6.9,30,0.00,,,0.00,WUHU216HW,2013-08-08 00:47:00,
2013-08-07 19:52:00,98.6,61.9,29.53,SW,225,3.4,6.0,30,0.00,,,0.00,WUHU216HW,2013-08-08 00:52:00,
2013-08-07 19:57:00,97.9,61.3,29.53,SSW,203,4.5,6.0,30,0.00,,,0.00,WUHU216HW,2013-08-08 00:57:00,
2013-08-07 20:02:00,97.6,61.7,29.53,South,180,3.6,4.7,31,0.00,,,0.00,WUHU216HW,2013-08-08 01:02:00,
2013-08-07 20:07:00,97.0,62.1,29.53,SSE,158,4.7,4.7,32,0.00,,,0.00,WUHU216HW,2013-08-08 01:07:00,
2013-08-07 20:12:00,96.7,61.8,29.53,South,180,4.9,4.9,32,0.00,,,0.00,WUHU216HW,2013-08-08 01:12:00,
2013-08-07 20:17:00,96.7,61.8,29.54,South,180,6.3,6.3,32,0.00,,,0.00,WUHU216HW,2013-08-08 01:17:00,
2013-08-07 20:22:00,96.3,62.4,29.54,SSE,158,4.7,6.3,33,0.00,,,0.00,WUHU216HW,2013-08-08 01:22:00,
2013-08-07 20:27:00,95.8,62.7,29.53,SSE,158,6.9,6.9,34,0.00,,,0.00,WUHU216HW,2013-08-08 01:27:00,
2013-08-07 20:32:00,95.2,62.3,29.53,South,180,5.6,6.9,34,0.00,,,0.00,WUHU216HW,2013-08-08 01:32:00,
2013-08-07 20:37:00,94.7,62.6,29.54,South,180,5.8,6.0,35,0.00,,,0.00,WUHU216HW,2013-08-08 01:37:00,
2013-08-07 20:42:00,94.5,62.5,29.54,SSW,203,5.8,5.8,35,0.00,,,0.00,WUHU216HW,2013-08-08 01:42:00,
2013-08-07 20:47:00,94.5,62.5,29.54,SSE,158,4.0,5.8,35,0.00,,,0.00,WUHU216HW,2013-08-08 01:47:00,
2013-08-07 20:52:00,93.8,62.6,29.54,SSE,158,5.6,5.6,36,0.00,,,0.00,WUHU216HW,2013-08-08 01:52:00,
2013-08-07 20:57:00,93.2,63.7,29.55,SSE,158,5.4,5.6,38,0.00,,,0.00,WUHU216HW,2013-08-08 01:57:00,
2013-08-07 21:02:00,93.6,63.3,29.55,SSE,158,4.0,5.4,37,0.00,,,0.00,WUHU216HW,2013-08-08 02:02:00,
2013-08-07 21:07:00,93.6,64.1,29.55,South,180,4.9,5.4,38,0.00,,,0.00,WUHU216HW,2013-08-08 02:07:00,
2013-08-07 21:12:00,93.1,63.5,29.55,South,180,6.3,6.3,38,0.00,,,0.00,WUHU216HW,2013-08-08 02:12:00,
2013-08-07 21:17:00,92.7,63.3,29.55,SSE,158,6.9,6.9,38,0.00,,,0.00,WUHU216HW,2013-08-08 02:17:00,
2013-08-07 21:22:00,92.5,63.9,29.55,South,180,6.3,6.9,39,0.00,,,0.00,WUHU216HW,2013-08-08 02:22:00,
2013-08-07 21:27:00,92.3,63.7,29.55,SSE,158,5.6,6.9,39,0.00,,,0.00,WUHU216HW,2013-08-08 02:27:00,
2013-08-07 21:32:00,92.2,63.5,29.56,South,180,6.0,7.6,39,0.00,,,0.00,WUHU216HW,2013-08-08 02:32:00,
2013-08-07 21:37:00,92.2,63.5,29.56,SSW,203,7.2,7.6,39,0.00,,,0.00,WUHU216HW,2013-08-08 02:37:00,
2013-08-07 21:42:00,92.0,63.5,29.57,SSE,158,4.7,7.6,39,0.00,,,0.00,WUHU216HW,2013-08-08 02:42:00,
2013-08-07 21:47:00,92.0,63.5,29.57,South,180,7.4,8.1,39,0.00,,,0.00,WUHU216HW,2013-08-08 02:47:00,
2013-08-07 21:52:00,92.3,64.5,29.57,South,180,14.3,14.3,40,0.00,,,0.00,WUHU216HW,2013-08-08 02:52:00,
2013-08-07 21:57:00,93.2,66.0,29.57,SSW,203,14.1,14.3,41,0.00,,,0.00,WUHU216HW,2013-08-08 02:57:00,
2013-08-07 22:02:00,93.2,68.0,29.57,South,180,8.5,14.1,44,0.00,,,0.00,WUHU216HW,2013-08-08 03:02:00,
2013-08-07 22:07:00,93.1,68.4,29.58,South,180,11.4,12.1,45,0.00,,,0.00,WUHU216HW,2013-08-08 03:07:00,
2013-08-07 22:12:00,92.7,68.8,29.58,SSE,158,7.8,12.1,46,0.00,,,0.00,WUHU216HW,2013-08-08 03:12:00,
2013-08-07 22:17:00,91.8,68.6,29.58,ESE,113,7.2,11.2,47,0.00,,,0.00,WUHU216HW,2013-08-08 03:17:00,
2013-08-07 22:22:00,91.3,68.8,29.58,SSW,203,7.8,9.2,48,0.00,,,0.00,WUHU216HW,2013-08-08 03:22:00,
2013-08-07 22:27:00,90.7,71.2,29.58,SSW,203,9.2,10.5,53,0.00,,,0.00,WUHU216HW,2013-08-08 03:27:00,
2013-08-07 22:32:00,90.7,72.3,29.59,SSW,203,9.2,15.0,55,0.00,,,0.00,WUHU216HW,2013-08-08 03:32:00,
2013-08-07 22:37:00,90.7,72.8,29.59,SSE,158,12.1,15.0,56,0.00,,,0.00,WUHU216HW,2013-08-08 03:37:00,
2013-08-07 22:42:00,91.3,73.8,29.59,SSW,203,11.4,14.8,57,0.00,,,0.00,WUHU216HW,2013-08-08 03:42:00,
2013-08-07 22:47:00,91.3,74.3,29.59,South,180,13.2,14.8,58,0.00,,,0.00,WUHU216HW,2013-08-08 03:47:00,
2013-08-07 22:52:00,90.7,74.4,29.60,SSW,203,12.8,17.7,59,0.00,,,0.00,WUHU216HW,2013-08-08 03:52:00,
2013-08-07 22:57:00,90.7,74.4,29.60,SSW,203,8.5,17.7,59,0.00,,,0.00,WUHU216HW,2013-08-08 03:57:00,
2013-08-07 23:01:00,90.0,74.4,29.60,SSW,203,13.6,16.3,60,0.00,,,0.00,WUHU216HW,2013-08-08 04:01:00,
2013-08-07 23:06:00,89.3,74.6,29.60,SSE,158,6.3,13.6,62,0.00,,,0.00,WUHU216HW,2013-08-08 04:06:00,
2013-08-07 23:11:00,88.9,74.3,29.60,South,180,10.5,13.6,62,0.00,,,0.00,WUHU216HW,2013-08-08 04:11:00,
2013-08-07 23:16:00,88.6,74.3,29.60,SE,135,12.8,13.4,63,0.00,,,0.00,WUHU216HW,2013-08-08 04:16:00,
2013-08-07 23:21:00,88.6,74.3,29.60,SSW,203,8.5,16.3,63,0.00,,,0.00,WUHU216HW,2013-08-08 04:21:00,
2013-08-07 23:26:00,88.6,74.3,29.61,South,180,17.2,17.2,63,0.00,,,0.00,WUHU216HW,2013-08-08 04:26:00,
2013-08-07 23:31:00,89.1,74.4,29.60,South,180,11.9,17.2,62,0.00,,,0.00,WUHU216HW,2013-08-08 04:31:00,
2013-08-07 23:36:00,89.3,74.6,29.60,SSW,203,10.1,14.3,62,0.00,,,0.00,WUHU216HW,2013-08-08 04:36:00,
2013-08-07 23:41:00,89.1,74.4,29.60,South,180,11.2,15.7,62,0.00,,,0.00,WUHU216HW,2013-08-08 04:41:00,
2013-08-07 23:46:00,88.9,74.3,29.60,SSW,203,12.1,15.7,62,0.00,,,0.00,WUHU216HW,2013-08-08 04:46:00,
2013-08-07 23:51:00,88.2,74.1,29.60,SSW,203,8.5,15.4,63,0.00,,,0.00,WUHU216HW,2013-08-08 04:51:00,
2013-08-07 23:56:00,87.5,73.8,29.60,SSW,203,10.5,14.8,64,0.00,,,0.00,WUHU216HW,2013-08-08 04:56:00,